SPACEBEE-147 (52415 NORAD) Tracking and Keplerian Element Data

This shows tracking and keplerian element data for the satellite.

Feedback or suggestion? Click here.




ElementValue
Catalog52415
NameSPACEBEE-147
Epoch Orbit1746
Epoch Day228.70583343
Epoch Year2022
RAAN312.2668
Inclination97.4484
Eccentricity0.0007866
Argument of Perigee339.2166
Mean Anonmoly20.8745
Mean Motion15.140418
Decay Rate6.4E-05
L11 52415U 22047X 22228.70583343 .00006400 00000+0 35541-3 0 9991
L22 52415 97.4484 312.2668 0007866 339.2166 20.8745 15.14041800 17468

Live tracking and technical data element details for SPACEBEE-147 (NORAD 52415). SPACEBEE-147 can be tracked NOW for your location showing map with azimuth and elevation plus other details from your city location.

Track the satellite on the map from your city or location and see movement details for azimuth, elevation, latitude, longitude, range, height, and movement on the map or in text.







IsCatalogInMostPopularTable: catalog: 52415, numindb: 5
Update: records affected: 1



GetName: 52415 SPACEBEE-147

Hit Count: updated at: Thu, 18 Aug 2022 20:53:15 GMT